Location: Maiden
(35.5760°N, 81.2120°W)
Time: 09:41:22
(UTC-04:00)

ISS - Visible Passes

Search period start: 19 August 2018 00:00
Search period end: 29 August 2018 00:00
Orbit: 401 x 409 km, 51.6° (Epoch: 19 August)

Date Brightness Start Highest point End Pass type
(mag) Time Alt. Az. Time Alt. Az. Time Alt. Az.
26 Aug -1.5 06:21:38 10° S 06:24:11 21° SE 06:26:44 10° ENE visible
27 Aug -0.8 05:31:53 10° SE 05:32:17 10° SE 05:32:43 10° ESE visible
28 Aug -3.4 06:13:04 10° SW 06:16:17 61° SE 06:19:31 10° NE visible
